Погода в Дрокино

Россия / Красноярский край     56°05′55″N   92°45′00″E
темп.,
°C
ветер,
м/с
пор.,
м/с
влажн.,
%
обл.,
%
осадки,
мм/ч
давл.,
гПа
погр.,
м
20 апреля, вт
вт2001:00−10з5108192 0.1 10201041
04:00−11зюз598189 0.0 1021815
07:00−11зюз5107757 0.0 1022776
10:00−8з6860100 0.0 10221461
13:00−6з7962100 0.1 10211687
16:00−5зюз71062100 0.1 10211748
19:00−5з6117195 0.2 10221385
22:00−7зюз41084100 0.1 1023989
21 апреля, ср
ср2101:00−7з41079100 0.1 1024654
04:00−9зюз388356 0.0 1025409
07:00−9юз25815 0.0 1027240
10:00−4з3555100 0.0 10261451
13:00−1з3347100 0.1 10251799
16:000сз2246100 0.1 10251430
19:00−2с2357100 0.1 1027225
22:00−4с1175100 0.0 102924
22 апреля, чт
чт2201:00−5с1180100 0.0 103045
04:00−5с1284100 0.0 103160
07:00−4с2378100 0.0 1033227
10:00−1ссв3459100 0.0 10341196
13:00+1св4449100 0.1 10351698
16:00+2ссв444895 0.1 10361520
19:00+1св367099 0.1 1039660
22:00−3с229141 0.1 104231
23 апреля, пт
пт2301:00−4ссз11929 0.1 104316
04:00−4ссз119210 0.0 104416
07:00−2ссв23825 0.0 1045176
10:00+2св46608 0.0 1044940
13:00+5всв684487 0.0 10421912
16:00+6всв684789 0.0 10411975
19:00+3всв6106093 0.0 1041689
22:00+1св41174100 0.0 1041433
24 апреля, сб
сб2401:00−1ссв3684100 0.0 1039193
04:00−1св3683100 0.0 1037204
07:000св31070100 0.0 1035620
10:00+3всв6956100 0.0 10331038
13:00+5в6851100 0.0 10311681
16:00+5всв5761100 0.0 10301271
19:00+2св2699100 0.4 1031409
22:00+1св2499100 0.8 1031453